Regional Weather Roundup
Issued by NWS

Home | Current Version | Previous Version | Graphics & Text | Print | Product List | Glossary On
Versions: 1 2 3 4 5 6 7 8 9 10 11 12 13 14 15 16 17 18 19 20 21 22 23 24 25 26 27 28 29 30 31 32 33 34 35 36 37 38 39 40 41 42 43 44 45 46 47 48 49
000
ASUS45 KTFX 281610
RWRMT
MONTANA REGIONAL WEATHER ROUNDUP
NATIONAL WEATHER SERVICE GREAT FALLS MT
1000 AM MDT TUE JUL 28 2015

NOTE: "FAIR" INDICATES FEW OR NO CLOUDS BELOW 12000 FEET WITH NO
SIGNIFICANT WEATHER AND/OR OBSTRUCTIONS TO VISIBILITY.

MTZ001>007-043-281700-
WEST OF THE DIVIDE

CITY           SKY/WX    TMP DP  RH WIND       PRES   REMARKS
KALISPELL      SUNNY     60  46  59 S7        30.20S
MISSOULA       SUNNY     55  48  77 VRB3      30.27R
BUTTE          PTSUNNY   52  39  61 VRB5      30.29R
MULLAN PASS    SUNNY     47  40  76 CALM      30.30R
DEER LODGE       N/A     55  43  62 CALM      30.30R
EUREKA           N/A     55  46  71 SW3       30.22S
HAMILTON         N/A     61  41  48 SE7       30.27R
LIBBY            N/A     52  46  82 CALM      30.23S
$$

MTZ008-052>055-281700-
SOUTHWEST MONTANA

CITY           SKY/WX    TMP DP  RH WIND       PRES   REMARKS
BOZEMAN        PTSUNNY   56  39  53 W16G22    30.24R
DILLON         PTSUNNY   51  40  65 SW5       30.29R
W YELLOWSTONE  SUNNY     46  34  61 SW7       30.33S
TWIN BRIDGES     N/A     53  38  56 E8        30.24S
$$

MTZ009-010-012-014-046-048-049-054-281700-
EAST SLOPES AND CENTRAL MONTANA

CITY           SKY/WX    TMP DP  RH WIND       PRES   REMARKS
CUT BANK       SUNNY     65  40  39 W24G31    30.08R
GREAT FALLS    MOSUNNY   62  42  47 W20G28    30.10R
MALMSTROM AFB  MOSUNNY   61  43  50 W20G26    30.11R
HELENA         MOSUNNY   62  41  46 W20G26    30.18S
CONRAD           N/A     65  45  48 W15       30.10R
$$

MTZ011-013-016-021-045-047-050-051-281700-
NORTH CENTRAL MONTANA

CITY           SKY/WX    TMP DP  RH WIND       PRES   REMARKS
HAVRE          CLOUDY    58  50  75 W15       29.96R
LEWISTOWN      CLOUDY    53  45  74 W15G26    30.08R
CHINOOK          N/A     55  52  88 W16       29.93R
FORT BENTON      N/A     64  45  48 W21G26    30.05R
$$

MTZ017>020-022>027-061-062-281700-
NORTHEAST MONTANA

CITY           SKY/WX    TMP DP  RH WIND       PRES   REMARKS
GLASGOW        LGT RAIN  57  53  86 W25G36    29.72R
JORDAN           N/A     56  53  90 W26G37    29.87
SIDNEY         PTSUNNY   61  54  77 SW23G38   29.63R
WOLF POINT     CLOUDY    62  55  77 W32G41    29.64S
PLENTYWOOD       N/A     57  55  94 W24G37    29.42F
POPLAR           N/A     61  54  77 W28G38    29.60R
$$

MTZ028>42-056>058-281700-
SOUTHCENTRAL AND SOUTHEAST MONTANA

CITY           SKY/WX    TMP DP  RH WIND       PRES   REMARKS
BAKER          PTSUNNY   61  47  59 W37G53    29.84R
BILLINGS       PTSUNNY   63  39  41 W23G35    30.11R
LIVINGSTON     CLOUDY    57  37  47 W24G35    30.20R
MILES CITY     CLOUDY    61  48  62 W36G46    29.91R
FORSYTH          N/A     63  45  51 W30G41    29.95R
LAUREL           N/A     63  35  35 W22       30.10R
ROUNDUP          N/A     58  42  55 W17       29.98R
$$

REGIONAL REPORTS...DAKOTAS

CITY           SKY/WX    TMP DP  RH WIND       PRES   REMARKS
WILLISTON      LGT RAIN  60  56  86 W26G39    29.53R
MINOT          CLOUDY    66  50  56 S20G32    29.54F
DICKINSON      CLOUDY    63  49  60 W33G52    29.71S
BEACH          CLOUDY    55  55 100 W35G46    29.75S FOG
CROSBY         CLOUDY    59  59 100 SW20G29   29.41F FOG
BISMARCK       PTSUNNY   68  49  50 W24G38    29.74S
GRAND FORKS    MOSUNNY   75  63  66 W18G25    29.60R
FARGO          PTSUNNY   76  65  68 SW20G28   29.68R
BUFFALO SD       N/A     65  43  44 W37G48    29.84R
RAPID CITY     SUNNY     69  43  38 W16G26    30.01R
$$

REGIONAL REPORTS...WYOMING/IDAHO/WASHINGTON

CITY           SKY/WX    TMP DP  RH WIND       PRES   REMARKS
GILLETTE       SUNNY     63  40  42 W10       30.08S
SHERIDAN       SUNNY     63  42  46 CALM      30.09R
BUFFALO WY     SUNNY     60  41  49 E6        30.12R
CODY           SUNNY     57  30  35 W17G30    30.19R
YELLOWSTONE LA   N/A     41  32  70 W8        30.37R
IDAHO FALLS    MOSUNNY   55  43  63 N3        30.33R
SALMON         CLOUDY    52  41  66 NW3       30.33R
BOISE          SUNNY     63  38  39 W5        30.27R
SPOKANE        MOSUNNY   60  43  53 VRB5      30.24R
$$

REGIONAL REPORTS...ALBERTA

CITY           SKY/WX    TMP DP  RH WIND       PRES   REMARKS
EDMONTON       MOSUNNY   64  46  52 NW10      29.97F
CALGARY        PTSUNNY   63  39  42 N17G23    30.07R
LETHBRIDGE     PTSUNNY   66  41  39 NW26      30.05R
WATERTON GATE    N/A     59  43  55 SW17G24     N/A
CARDSTON         N/A     64  41  42 W9G22       N/A
MILK RIVER       N/A     64  43  45 NW23        N/A
ONEFOUR          N/A     55  46  71 W22         N/A
$$

REGIONAL REPORTS...SASKATCHEWAN

CITY           SKY/WX    TMP DP  RH WIND       PRES   REMARKS
SWIFT CURRENT  LGT RAIN  54 N/A N/A NW26G38   29.68R
REGINA         LGT RAIN  61  61 100 SE7       29.27S FOG
SASKATOON      LGT RAIN  57  57 100 N23G29    29.63S
CYPRESS HILLS    N/A     48  46  93 NW13G22     N/A
VAL MARIE        N/A     54  50  87 NW29G35     N/A
ROCKGLEN         N/A     54  52  94 W28G44      N/A
ASSINIBOIA       N/A     63  48  59 NW15G22     N/A
$$


USA.gov is the U.S. government's official web portal to all federal, state and local government web resources and services.